This is the latest recevied weather packets stored in our database for station/object W4DEX-2. If no packets are shown the sender has not sent any weather packets the latest 10 day(s).
| Time | Temp. | Humidity | Pressure | Rain* | Wind** | Luminosity | Snow |
|---|---|---|---|---|---|---|---|
| 1777381502 | 11.67° C | 89% | 1023.6 hPa | 0 mm | 5.36 m/s, 177° | - | - |
| 1777380902 | 11.67° C | 88% | 1023.6 hPa | 0 mm | 4.92 m/s, 174° | - | - |
| 1777380602 | 11.67° C | 88% | 1023.7 hPa | 1.78 mm | 4.92 m/s, 180° | - | - |
| 1777380002 | 11.67° C | 87% | 1022.9 hPa | 5.33 mm | 4.47 m/s, 172° | - | - |
| 1777379702 | 11.67° C | 86% | 1023.3 hPa | 1.78 mm | 3.58 m/s, 177° | - | - |
| 1777379402 | 11.67° C | 86% | 1023.4 hPa | 0 mm | 4.02 m/s, 171° | - | - |
| 1777379102 | 11.67° C | 86% | 1023.3 hPa | 0 mm | 4.92 m/s, 180° | - | - |
| 1777378502 | 11.67° C | 85% | 1024 hPa | 0 mm | 6.71 m/s, 180° | - | - |
| 1777378202 | 11.67° C | 85% | 1024.5 hPa | 0 mm | 4.02 m/s, 174° | - | - |
| 1777377902 | 11.67° C | 85% | 1024.5 hPa | 0 mm | 3.58 m/s, 186° | - | - |
| 1777377303 | 11.67° C | 86% | 1024.3 hPa | 0 mm | 5.36 m/s, 173° | - | - |
| 1777377002 | 11.67° C | 86% | 1024.1 hPa | 0 mm | 5.36 m/s, 175° | - | - |
| 1777376702 | 11.67° C | 86% | 1024 hPa | 0 mm | 4.92 m/s, 176° | - | - |
| 1777375802 | 11.67° C | 85% | 1023.6 hPa | 0 mm | 3.58 m/s, 176° | - | - |
| 1777375502 | 11.67° C | 85% | 1023.4 hPa | 0 mm | 3.13 m/s, 174° | - | - |
| 1777375202 | 11.67° C | 85% | 1023.5 hPa | 0 mm | 4.02 m/s, 181° | - | - |
| 1777374602 | 11.11° C | 86% | 1023.7 hPa | 0 mm | 3.58 m/s, 170° | - | - |
| 1777374302 | 11.11° C | 86% | 1022.9 hPa | 0 mm | 3.58 m/s, 170° | - | - |
| 1777373402 | 11.11° C | 86% | 1022 hPa | 0 mm | 4.92 m/s, 177° | - | - |
| 1777373102 | 10.56° C | 86% | 1021.6 hPa | 0 mm | 5.81 m/s, 176° | - | - |
| 1777372802 | 10.56° C | 86% | 1021.6 hPa | 0 mm | 5.81 m/s, 176° | - | - |
| 1777372202 | 10.56° C | 86% | 1020.7 hPa | 0 mm | 4.47 m/s, 172° | - | - |
| 1777371902 | 10.56° C | 86% | 1020.9 hPa | 0 mm | 4.02 m/s, 174° | - | - |
| 1777371002 | 10.56° C | 86% | 1020.5 hPa | 0 mm | 4.02 m/s, 176° | - | - |
| 1777370702 | 10.56° C | 86% | 1020.3 hPa | 0 mm | 4.92 m/s, 169° | - | - |
* Rain latest hour (hover to see other rain measurements)
** Current wind speed in m/s (hover to see current wind gust speed)